User: anonymous   Login
Location: Unspecified
(0.0000°N, 0.0000°E)
Time: 22:44:55
(UTC+00:00)
Language:

XW-2A - Orbit

View from above orbital plane
View from above orbital plane
View from above satellite
View from above satellite

Ground track
Ground track

The orbit data is extracted from the following two-line orbital elements,

1 40903U 15049E   18116.79326331  .00001904  00000-0  49271-4 0  9997
2 40903  97.3895 151.1286 0013341 209.4800 150.5695 15.40298250145892
Epoch (UTC): 26 April 2018 19:02:17
Eccentricity: 0.0013341
inclination: 97.3895°
perigee height: 436 km
apogee height: 454 km
right ascension of ascending node: 151.1286°
argument of perigee: 209.4800°
revolutions per day: 15.40298250
mean anomaly at epoch: 150.5695°
orbit number at epoch: 14589

The dashed part of the orbit path shows where the satellite is in the earth's shadow,  

DLR